STARLINK-2314, 47788

Orbit data source: Space-Track

STARLINK-2314, 47788 is a payload satellite owned by SpaceX/Seattle (US) in LEO that was launched on Thu, 11 Mar 2021 UTC via an FALCON 9 launch vehicle from the Air Force Eastern Test Range (AFETR). Payload-class satellites include a variety of spacecraft equipped with specific instruments for various scientific and technological missions. These include communications satellites like Starlink; space stations such as the ISS; scientific satellites like the Hubble; Earth observation satellites from companies like Planet Labs, Umbra, and HawkEye 360; GPS; miniature CubeSats for education and research; and military/defense satellites.

Loading next visibility...
Identifier
47788, 2021-018B
Orbit
LEO
Country
Flag of USUS
Related business
Manufacturer
SpaceX/Seattle
Mission
Operational Commercial Communications
Bus & Motor
STARLINK, Unknown motor
Mass
260 kg wet, ~248 kg dry
Launch date (UTC)
2021-03-11 (5 years ago)
Launch vehicle
FALCON 9
Launch site
Air Force Eastern Test Range (AFETR)
Object type
Payload
Rocket body
Debris
Shape & HBR
Box + 1 Pan, 10.1 m
Radar Cross Section
13.562 m², Large (>1 m²)

Expand to show TLE details & history
Last TLE update: 18 hours ago

TLE from 18 hours ago
0 STARLINK-2314
1 47788U 21018B   26119.93555263  .00078647  00000-0  22600-2 0  9997
2 47788  53.1605 340.8463 0002422 177.6703 182.4311 15.35149145284928
Epoch: 2026-04-29T22:27Z
TLE epoch observation values (Epoch: 2026-04-29T22:27:11.747Z)
Latitude
-0.00006°
Longitude
146.15794°
Altitude
463.034 km
Speed
7.635 km/s
True Right ascension
22h 43m 23s
True Declination
0° 00' 00"
Sunlit
Object was in daylight at epoch
Visualization orbit readout
Latitude
Unknown
Longitude
Unknown
Altitude
Unknown
Speed
Unknown
Apparent Right ascension
Unknown
Apparent Declination
Unknown
Sunlit
N/A
Visualization observer readout
Local Sidereal Time
23:57:41
Azimuth
Unknown
Elevation
Unknown
Doppler factor
Unknown
Orbital elements
Apogee altitude
462.391 km
Perigee altitude
459.078 km
Semi-major axis
6,838.871 km
Eccentricity
0.00024
Inclination
53.1605°
RAAN
340.8463°
Arg. of periapsis
177.6703°
True anomaly
182.42992°
Mean anomaly
182.4311°
Eccentric anomaly
182.43051°
Mean motion
3.83766 °/min
Orbital period
93.81 mins
BSTAR
0.00226
Loading maneuver chart data...
Computing Atmospheric mass density...
Loading historical data...
Loading historical data...
Loading historical data...
Loading historical data...
Loading historical data...
Loading historical data...
Loading historical data...

Documentation

Showing up to 5 results
|